Regional Weather Roundup
Issued by NWS Albany, NY

Home | Current Version | Previous Version | Graphics & Text | Print | Product List | Glossary Off
Versions: 1 2 3 4 5 6 7 8 9 10 11 12 13 14 15 16 17 18 19 20 21 22 23 24 25 26 27 28 29 30 31 32 33 34 35 36 37 38 39 40 41 42 43 44 45 46 47 48 49 50

764
ASUS41 KALY 271010
RWRALY

NEW YORK STATE HOURLY WEATHER ROUNDUP
NATIONAL WEATHER SERVICE ALBANY NY
600 AM EDT TUE SEP 27 2016

NOTE: "FAIR" INDICATES FEW OR NO CLOUDS BELOW 12,000 FEET WITH NO
SIGNIFICANT WEATHER AND/OR NO OBSTRUCTIONS TO VISIBILITY.

NYZ032-033-038>043-046>054-057>066-NYZ062>081-082-084-271100-
EAST


CITY           SKY/WX    TMP DP  RH WIND       PRES   REMARKS
ALBANY         CLOUDY    58  56  93 S7        29.90S
GLENS FALLS    CLOUDY    58  55  90 S5        29.89F
POUGHKEEPSIE   CLOUDY    61  60  97 CALM      29.90R
NEWBURGH       MOCLDY    59  59 100 W7        29.92S
MONTGOMERY     CLOUDY    58  58 100 CALM      29.91R FOG
WHITE PLAINS   CLOUDY    64  62  93 W9        29.90S
ISLIP          LGT RAIN  67  66  97 W6        29.89S
NEW YORK CITY  LGT RAIN  68  63  84 W10       29.89S
CENTRAL PARK   CLOUDY    65  63  93 CALM      29.93S
$$

NYZ005>009-017-018-044>046-055-056-271100-
CENTRAL


CITY           SKY/WX    TMP DP  RH WIND       PRES   REMARKS
FULTON         CLOUDY    55  52  89 S6        29.88S
SYRACUSE       MOCLDY    51  49  92 CALM      29.88S
ROME           PTCLDY    51  51 100 CALM      29.91S FOG
ELMIRA         FOG       47  44  90 CALM      29.92R VSB 1/4
BINGHAMTON     FOG       53  53 100 NW5       29.92R VSB 1/8
MONTICELLO     CLOUDY    55  55 100 CALM      29.93S
$$

NYZ026>034-041>043-087-271100-
NORTH


CITY           SKY/WX    TMP DP  RH WIND       PRES   REMARKS
WATERTOWN      PTCLDY    56  53  90 S5        29.85S
FORT DRUM      NOT AVBL
OGDENSBURG     MOCLDY    52  51  97 CALM      29.84S
MASSENA        FOG       50  48  93 CALM      29.85S VSB 1/4
SARANAC LAKE   FOG       50  48  93 S3        29.88R VSB 3/4
PLATTSBURGH    CLOUDY    54  52  93 CALM      29.86R
$$

NYZ001>004-010>016-019>021-085-271100-
WEST


CITY           SKY/WX    TMP DP  RH WIND       PRES   REMARKS
NIAGARA FALLS  CLOUDY    54  43  66 S8        29.84S
BUFFALO        LGT RAIN  56  50  80 SW6       29.87R
DUNKIRK        CLEAR     55  48  77 S13       29.86F
JAMESTOWN      CLEAR     50  45  81 SW10      29.90S
WELLSVILLE     CLEAR     50  46  86 SW3       29.94S
ROCHESTER      MOCLDY    56  52  86 SW7       29.87F
PENN YAN       CLEAR     54  51  90 S5        29.90F
$$

             KEY
       WCI = WIND CHILL INDEX
       VSB = VISIBILITY
       HX  = HEAT INDEX
$$




USA.gov is the U.S. government's official web portal to all federal, state and local government web resources and services.